{"data":{"norad_id":62309,"epoch":"2026-05-25T02:43:51.930336Z","epoch_age_seconds":68419,"freshness":"FRESH","line1":"1 62309U 24239J   26145.11379549  .00043353  00000+0  14187-2 0  9997","line2":"2 62309  53.1589 186.2366 0001705  14.1622 345.9427 15.31288264 81265","mean_motion":15.31288264,"eccentricity":0.0001705,"inclination_deg":53.1589,"raan_deg":186.2366,"arg_perigee_deg":14.1622,"mean_anomaly_deg":345.9427,"bstar":0.0014187,"rev_number":8126,"period_min":94.038466424242,"perigee_km":470.79969098178,"apogee_km":473.13557666192,"semimajor_km":6850.1046338218,"source":"CELESTRAK","updated_at":"2026-05-25T13:38:19.648706Z"}}